SL-16 DEB, 18416

Orbit data source: Space-Track

SL-16 DEB, 18416 is space debris in LEO originally from a launch on Wed, 18 Mar 1987 UTC launched from the Tyuratam Missile And Space Complex (TTMTR). Debris objects in space refer to the collection of defunct objects orbiting the Earth. Examples of debris include non-operational satellites, rocket bodies, and fragments generated from explosions, collisions, or faulty payload assembly.

Loading next visibility...
Identifier
18416, 1987-027C
Orbit
LEO
Country
Flag of CISCIS
Related business
Manufacturer
Yuzhnoe
Mission
Spacecraft
Bus & Motor
SEP MOTOR COVER, Unknown motor
Mass
~0 kg wet, ~1 kg dry
Launch date (UTC)
1987-03-18 (39 years ago)
Launch vehicle
Unknown
Launch site
Tyuratam Missile And Space Complex (TTMTR)
Object type
Payload
Rocket body
Debris
Shape & HBR
Unknown shape, 0.2 m
Radar Cross Section
Small (<0.1 m²)

Expand to show TLE details & history
Last TLE update: 23 hours ago

TLE from 23 hours ago
0 SL-16 DEB
1 18416U 87027C   26130.02345583  .00000064  00000-0  93364-4 0  9995
2 18416  71.0359 332.3544 0186519 149.8708   3.6807 13.77556331966431
Epoch: 2026-05-10T00:33Z
TLE epoch observation values (Epoch: 2026-05-10T00:33:46.583Z)
Latitude
24.81883°
Longitude
-93.01715°
Altitude
838.194 km
Speed
7.505 km/s
True Right ascension
09h 33m 02s
True Declination
24° 41' 22"
Sunlit
Object was in daylight at epoch
Visualization orbit readout
Latitude
Unknown
Longitude
Unknown
Altitude
Unknown
Speed
Unknown
Apparent Right ascension
Unknown
Apparent Declination
Unknown
Sunlit
N/A
Visualization observer readout
Local Sidereal Time
07:20:45
Azimuth
Unknown
Elevation
Unknown
Doppler factor
Unknown
Orbital elements
Apogee altitude
1,107.591 km
Perigee altitude
833.458 km
Semi-major axis
7,348.661 km
Eccentricity
0.01865
Inclination
71.0359°
RAAN
332.3544°
Arg. of periapsis
149.8708°
True anomaly
3.82117°
Mean anomaly
3.6807°
Eccentric anomaly
3.75061°
Mean motion
3.44533 °/min
Orbital period
104.49 mins
BSTAR
0.000093364
Loading maneuver chart data...
Computing Atmospheric mass density...
Loading historical data...
Loading historical data...
Loading historical data...
Loading historical data...
Loading historical data...
Loading historical data...
Loading historical data...

Documentation

Showing up to 5 results
|